• In Deutschland
  • Länderverzeichnis
  • Für 7 Tage
  • Wassertemperatur
  • Satellitenkarten
  • Wetterkarte
  • Widgets
  • user-avatar
    Anmelden

    Stündliche Wetter Helmstedt

    Heute, 17 Oktober, Dienstag

    Zeit Temperatur Niederschläge Wind Luftdruck Luftfeuchtigkeit
    00:00 +17°C° 0 mm 3 m/S 753 mmHg 72%
    01:00 +16°C° 0 mm 3 m/S 753 mmHg 71%
    02:00 +16°C° 0 mm 3 m/S 752 mmHg 71%
    03:00 +16°C° 0 mm 3 m/S 752 mmHg 71%
    04:00 +14°C° 0 mm 3 m/S 752 mmHg 71%
    05:00 +14°C° 0 mm 3 m/S 752 mmHg 73%
    06:00 +13°C° 0 mm 3 m/S 752 mmHg 75%
    07:00 +13°C° 0 mm 3 m/S 752 mmHg 77%
    08:00 +14°C° 0 mm 3 m/S 753 mmHg 74%
    09:00 +17°C° 0 mm 3 m/S 753 mmHg 71%
    10:00 +18°C° 0 mm 3 m/S 753 mmHg 68%
    11:00 +19°C° 0 mm 3 m/S 753 mmHg 66%
    12:00 +20°C° 0 mm 3 m/S 753 mmHg 64%
    13:00 +21°C° 0 mm 3 m/S 752 mmHg 63%
    14:00 +21°C° 0 mm 2 m/S 752 mmHg 65%
    15:00 +21°C° 0 mm 2 m/S 751 mmHg 68%
    16:00 +21°C° 0 mm 2 m/S 751 mmHg 70%
    17:00 +19°C° 0 mm 2 m/S 751 mmHg 76%
    18:00 +19°C° 0 mm 1 m/S 751 mmHg 82%
    19:00 +16°C° 0 mm 1 m/S 751 mmHg 87%
    20:00 +16°C° 0 mm 1 m/S 751 mmHg 88%
    21:00 +15°C° 0 mm 1 m/S 751 mmHg 89%
    22:00 +15°C° 0 mm 1 m/S 751 mmHg 90%
    23:00 +14°C° 0 mm 1 m/S 750 mmHg 91%

    Morgen, 18 Oktober, Mittwoch

    Zeit Temperatur Niederschläge Wind Luftdruck Luftfeuchtigkeit
    00:00 +14°C° 0 mm 1 m/S 750 mmHg 91%
    01:00 +14°C° 0 mm 1 m/S 750 mmHg 91%
    02:00 +12°C° 0 mm 0 m/S 750 mmHg 92%
    03:00 +12°C° 0 mm 0 m/S 749 mmHg 92%
    04:00 +12°C° 0 mm 0 m/S 749 mmHg 92%
    05:00 +12°C° 0 mm 0 m/S 749 mmHg 92%
    06:00 +11°C° 0 mm 0 m/S 749 mmHg 92%
    07:00 +11°C° 0 mm 0 m/S 749 mmHg 92%
    08:00 +14°C° 0 mm 1 m/S 749 mmHg 87%
    09:00 +16°C° 0 mm 1 m/S 749 mmHg 81%
    10:00 +18°C° 0 mm 1 m/S 749 mmHg 75%
    11:00 +19°C° 0 mm 1 m/S 748 mmHg 71%
    12:00 +19°C° 0 mm 2 m/S 748 mmHg 66%
    13:00 +20°C° 0 mm 2 m/S 748 mmHg 62%
    14:00 +20°C° 0 mm 2 m/S 747 mmHg 63%
    15:00 +21°C° 0 mm 1 m/S 747 mmHg 65%
    16:00 +21°C° 0 mm 1 m/S 747 mmHg 66%
    17:00 +19°C° 0 mm 1 m/S 747 mmHg 71%
    18:00 +18°C° 0 mm 1 m/S 747 mmHg 75%
    19:00 +15°C° 0 mm 2 m/S 747 mmHg 80%
    20:00 +14°C° 0 mm 2 m/S 747 mmHg 81%
    21:00 +14°C° 0 mm 2 m/S 747 mmHg 82%
    22:00 +13°C° 0 mm 2 m/S 747 mmHg 82%
    23:00 +13°C° 0 mm 2 m/S 747 mmHg 83%

    übermorgen, 19 Oktober, Donnerstag

    Zeit Temperatur Niederschläge Wind Luftdruck Luftfeuchtigkeit
    00:00 +13°C° 0 mm 2 m/S 747 mmHg 84%
    01:00 +12°C° 0 mm 2 m/S 746 mmHg 85%
    02:00 +12°C° 0 mm 2 m/S 746 mmHg 86%
    03:00 +12°C° 0 mm 2 m/S 746 mmHg 87%
    04:00 +12°C° 0 mm 2 m/S 746 mmHg 87%
    05:00 +10°C° 0 mm 2 m/S 746 mmHg 88%
    06:00 +10°C° 0 mm 2 m/S 746 mmHg 89%
    07:00 +10°C° 0 mm 2 m/S 746 mmHg 89%
    08:00 +13°C° 0 mm 2 m/S 746 mmHg 82%
    09:00 +15°C° 0 mm 2 m/S 746 mmHg 76%
    10:00 +16°C° 0 mm 2 m/S 746 mmHg 69%
    11:00 +18°C° 0 mm 3 m/S 746 mmHg 65%
    12:00 +19°C° 0 mm 3 m/S 746 mmHg 61%
    13:00 +20°C° 0 mm 3 m/S 746 mmHg 57%
    14:00 +20°C° 0 mm 3 m/S 746 mmHg 60%
    15:00 +19°C° 0 mm 2 m/S 745 mmHg 62%
    16:00 +19°C° 0 mm 2 m/S 745 mmHg 65%
    17:00 +18°C° 0 mm 2 m/S 745 mmHg 69%
    18:00 +17°C° 0 mm 2 m/S 746 mmHg 74%
    19:00 +15°C° 0 mm 2 m/S 746 mmHg 78%
    20:00 +15°C° 0 mm 2 m/S 746 mmHg 77%
    21:00 +14°C° 0 mm 3 m/S 746 mmHg 75%
    22:00 +14°C° 0 mm 3 m/S 746 mmHg 74%
    23:00 +14°C° 0 mm 3 m/S 746 mmHg 73%

    20 Oktober, Freitag

    Zeit Temperatur Niederschläge Wind Luftdruck Luftfeuchtigkeit
    00:00 +14°C° 0 mm 3 m/S 745 mmHg 72%
    01:00 +14°C° 0 mm 3 m/S 745 mmHg 70%
    02:00 +14°C° 0,1 mm 3 m/S 745 mmHg 71%
    03:00 +14°C° 0,1 mm 4 m/S 745 mmHg 71%
    04:00 +14°C° 0,1 mm 4 m/S 744 mmHg 71%
    05:00 +14°C° 0,1 mm 4 m/S 744 mmHg 71%
    06:00 +14°C° 0,1 mm 4 m/S 744 mmHg 71%
    07:00 +14°C° 0,1 mm 5 m/S 744 mmHg 72%
    08:00 +15°C° 0 mm 6 m/S 744 mmHg 70%
    09:00 +16°C° 0 mm 7 m/S 744 mmHg 68%
    10:00 +17°C° 0 mm 8 m/S 744 mmHg 66%
    11:00 +17°C° 0,1 mm 8 m/S 744 mmHg 64%
    12:00 +17°C° 0,1 mm 8 m/S 745 mmHg 62%
    13:00 +18°C° 0,1 mm 8 m/S 745 mmHg 60%
    14:00 +17°C° 0 mm 7 m/S 745 mmHg 60%
    15:00 +17°C° 0 mm 6 m/S 745 mmHg 61%
    16:00 +16°C° 0 mm 5 m/S 745 mmHg 61%
    17:00 +15°C° 0 mm 5 m/S 746 mmHg 66%
    18:00 +14°C° 0 mm 4 m/S 746 mmHg 70%
    19:00 +12°C° 0 mm 4 m/S 746 mmHg 74%
    20:00 +12°C° 0 mm 4 m/S 747 mmHg 77%
    21:00 +11°C° 0 mm 4 m/S 747 mmHg 79%
    22:00 +11°C° 0 mm 3 m/S 747 mmHg 82%
    23:00 +11°C° 0 mm 3 m/S 747 mmHg 84%

    21 Oktober, Samstag

    Zeit Temperatur Niederschläge Wind Luftdruck Luftfeuchtigkeit
    00:00 +11°C° 0 mm 3 m/S 747 mmHg 86%
    01:00 +12°C° 0 mm 3 m/S 746 mmHg 87%
    02:00 +12°C° 0,5 mm 3 m/S 746 mmHg 88%
    03:00 +13°C° 0,5 mm 3 m/S 746 mmHg 89%
    04:00 +13°C° 0,5 mm 3 m/S 746 mmHg 91%
    05:00 +13°C° 0 mm 3 m/S 745 mmHg 89%
    06:00 +14°C° 0 mm 3 m/S 745 mmHg 88%
    07:00 +14°C° 0 mm 4 m/S 745 mmHg 86%
    08:00 +15°C° 0 mm 4 m/S 745 mmHg 82%
    09:00 +16°C° 0 mm 5 m/S 745 mmHg 78%
    10:00 +17°C° 0 mm 5 m/S 745 mmHg 74%
    11:00 +17°C° 0,6 mm 5 m/S 744 mmHg 77%
    12:00 +17°C° 0,6 mm 4 m/S 744 mmHg 80%
    13:00 +17°C° 0,6 mm 4 m/S 744 mmHg 83%
    14:00 +17°C° 1,8 mm 4 m/S 744 mmHg 85%
    15:00 +15°C° 1,8 mm 5 m/S 744 mmHg 87%
    16:00 +15°C° 1,8 mm 5 m/S 744 mmHg 89%
    17:00 +14°C° 0,7 mm 4 m/S 745 mmHg 89%
    18:00 +14°C° 0,7 mm 4 m/S 745 mmHg 90%
    19:00 +14°C° 0,7 mm 3 m/S 745 mmHg 90%
    20:00 +13°C° 0 mm 3 m/S 745 mmHg 88%
    21:00 +13°C° 0 mm 3 m/S 745 mmHg 87%
    22:00 +12°C° 0 mm 4 m/S 746 mmHg 86%
    23:00 +12°C° 0 mm 4 m/S 746 mmHg 86%

    22 Oktober, Sonntag

    Zeit Temperatur Niederschläge Wind Luftdruck Luftfeuchtigkeit
    00:00 +11°C° 0 mm 4 m/S 745 mmHg 86%
    01:00 +10°C° 0 mm 4 m/S 745 mmHg 86%
    02:00 +10°C° 0 mm 4 m/S 745 mmHg 86%
    03:00 +10°C° 0 mm 4 m/S 745 mmHg 86%
    04:00 +10°C° 0 mm 4 m/S 745 mmHg 86%
    05:00 +8°C° 0 mm 4 m/S 745 mmHg 85%
    06:00 +8°C° 0 mm 4 m/S 745 mmHg 85%
    07:00 +7°C° 0 mm 4 m/S 745 mmHg 85%
    08:00 +8°C° 0 mm 5 m/S 745 mmHg 80%
    09:00 +9°C° 0 mm 6 m/S 745 mmHg 75%
    10:00 +10°C° 0 mm 7 m/S 745 mmHg 70%
    11:00 +10°C° 0,1 mm 7 m/S 745 mmHg 68%
    12:00 +10°C° 0,1 mm 7 m/S 745 mmHg 66%
    13:00 +11°C° 0,1 mm 7 m/S 745 mmHg 64%
    14:00 +10°C° 0 mm 6 m/S 745 mmHg 64%
    15:00 +10°C° 0 mm 6 m/S 745 mmHg 65%
    16:00 +10°C° 0 mm 5 m/S 745 mmHg 66%
    17:00 +9°C° 0 mm 5 m/S 745 mmHg 68%
    18:00 +8°C° 0 mm 5 m/S 745 mmHg 69%
    19:00 +8°C° 0 mm 5 m/S 746 mmHg 71%
    20:00 +8°C° 0 mm 6 m/S 745 mmHg 72%
    21:00 +8°C° 0 mm 6 m/S 745 mmHg 73%
    22:00 +8°C° 0 mm 7 m/S 745 mmHg 74%
    23:00 +8°C° 0,5 mm 7 m/S 745 mmHg 76%
    Mehr zeigen